Year,Month,Day,Hour,Minute,Value (Times are PST for temperature in C)
2009,07,03,00,00,19.60
2009,07,03,00,01,19.50
2009,07,03,00,02,19.40
2009,07,03,00,03,19.40
2009,07,03,00,04,19.40
2009,07,03,00,05,19.30
2009,07,03,00,06,19.30
2009,07,03,00,07,19.30
2009,07,03,00,08,19.30
2009,07,03,00,09,19.30
2009,07,03,00,10,19.30
2009,07,03,00,11,19.30
2009,07,03,00,12,19.30
2009,07,03,00,13,19.20
2009,07,03,00,14,19.20
2009,07,03,00,15,19.20
2009,07,03,00,16,19.20
2009,07,03,00,17,19.20
2009,07,03,00,18,19.20
2009,07,03,00,19,19.20
2009,07,03,00,20,19.20
2009,07,03,00,21,19.20
2009,07,03,00,22,19.10
2009,07,03,00,23,19.10
2009,07,03,00,24,19.10
2009,07,03,00,25,19.10
2009,07,03,00,26,19.00
2009,07,03,00,27,19.00
2009,07,03,00,28,18.90
2009,07,03,00,29,18.90
2009,07,03,00,30,18.90
2009,07,03,00,31,18.90
2009,07,03,00,32,18.80
2009,07,03,00,33,18.80
2009,07,03,00,34,18.80
2009,07,03,00,35,18.80
2009,07,03,00,36,18.70
2009,07,03,00,37,18.70
2009,07,03,00,38,18.70
2009,07,03,00,39,18.60
2009,07,03,00,40,18.60
2009,07,03,00,41,18.60
2009,07,03,00,42,18.50
2009,07,03,00,43,18.50
2009,07,03,00,44,18.50
2009,07,03,00,45,18.40
2009,07,03,00,46,18.40
2009,07,03,00,47,18.40
2009,07,03,00,48,18.40
2009,07,03,00,49,18.40
2009,07,03,00,50,18.30
2009,07,03,00,51,18.30
2009,07,03,00,52,18.30
2009,07,03,00,53,18.30
2009,07,03,00,54,18.30
2009,07,03,00,55,18.20
2009,07,03,00,56,18.20
2009,07,03,00,57,18.20
2009,07,03,00,58,18.20
2009,07,03,00,59,18.20
2009,07,03,01,00,18.10
2009,07,03,01,01,18.10
2009,07,03,01,02,18.10
2009,07,03,01,03,18.00
2009,07,03,01,04,18.00
2009,07,03,01,05,17.90
2009,07,03,01,06,17.90
2009,07,03,01,07,17.90
2009,07,03,01,08,17.90
2009,07,03,01,09,17.90
2009,07,03,01,10,17.90
2009,07,03,01,11,17.90
2009,07,03,01,12,17.90
2009,07,03,01,13,17.90
2009,07,03,01,14,17.90
2009,07,03,01,15,17.90
2009,07,03,01,16,18.00
2009,07,03,01,17,18.00
2009,07,03,01,18,18.00
2009,07,03,01,19,18.10
2009,07,03,01,20,18.10
2009,07,03,01,21,18.20
2009,07,03,01,22,18.20
2009,07,03,01,23,18.20
2009,07,03,01,24,18.20
2009,07,03,01,25,18.30
2009,07,03,01,26,18.40
2009,07,03,01,27,18.40
2009,07,03,01,28,18.50
2009,07,03,01,29,18.50
2009,07,03,01,30,18.60
2009,07,03,01,31,18.60
2009,07,03,01,32,18.60
2009,07,03,01,33,18.60
2009,07,03,01,34,18.60
2009,07,03,01,35,18.60
2009,07,03,01,36,18.60
2009,07,03,01,37,18.60
2009,07,03,01,38,18.60
2009,07,03,01,39,18.70
2009,07,03,01,40,18.70
2009,07,03,01,41,18.70
2009,07,03,01,42,18.70
2009,07,03,01,43,18.70
2009,07,03,01,44,18.70
2009,07,03,01,45,18.60
2009,07,03,01,46,18.60
2009,07,03,01,47,18.60
2009,07,03,01,48,18.50
2009,07,03,01,49,18.50
2009,07,03,01,50,18.40
2009,07,03,01,51,18.40
2009,07,03,01,52,18.30
2009,07,03,01,53,18.20
2009,07,03,01,54,18.20
2009,07,03,01,55,18.10
2009,07,03,01,56,18.10
2009,07,03,01,57,18.00
2009,07,03,01,58,17.90
2009,07,03,01,59,17.90
2009,07,03,02,00,17.80
2009,07,03,02,01,17.80
2009,07,03,02,02,17.70
2009,07,03,02,03,17.70
2009,07,03,02,04,17.60
2009,07,03,02,05,17.60
2009,07,03,02,06,17.60
2009,07,03,02,07,17.50
2009,07,03,02,08,17.40
2009,07,03,02,09,17.40
2009,07,03,02,10,17.40
2009,07,03,02,11,17.30
2009,07,03,02,12,17.30
2009,07,03,02,13,17.20
2009,07,03,02,14,17.10
2009,07,03,02,15,17.00
2009,07,03,02,16,16.90
2009,07,03,02,17,16.80
2009,07,03,02,18,16.80
2009,07,03,02,19,16.70
2009,07,03,02,20,16.60
2009,07,03,02,21,16.60
2009,07,03,02,22,16.50
2009,07,03,02,23,16.50
2009,07,03,02,24,16.40
2009,07,03,02,25,16.40
2009,07,03,02,26,16.40
2009,07,03,02,27,16.40
2009,07,03,02,28,16.30
2009,07,03,02,29,16.30
2009,07,03,02,30,16.30
2009,07,03,02,31,16.30
2009,07,03,02,32,16.20
2009,07,03,02,33,16.20
2009,07,03,02,34,16.20
2009,07,03,02,35,16.20
2009,07,03,02,36,16.20
2009,07,03,02,37,16.20
2009,07,03,02,38,16.20
2009,07,03,02,39,16.20
2009,07,03,02,40,16.30
2009,07,03,02,41,16.30
2009,07,03,02,42,16.30
2009,07,03,02,43,16.30
2009,07,03,02,44,16.20
2009,07,03,02,45,16.20
2009,07,03,02,46,16.30
2009,07,03,02,47,16.30
2009,07,03,02,48,16.30
2009,07,03,02,49,16.30
2009,07,03,02,50,16.40
2009,07,03,02,51,16.40
2009,07,03,02,52,16.50
2009,07,03,02,53,16.50
2009,07,03,02,54,16.60
2009,07,03,02,55,16.50
2009,07,03,02,56,16.50
2009,07,03,02,57,16.50
2009,07,03,02,58,16.40
2009,07,03,02,59,16.40
2009,07,03,03,00,16.30
2009,07,03,03,01,16.30
2009,07,03,03,02,16.30
2009,07,03,03,03,16.30
2009,07,03,03,04,16.30
2009,07,03,03,05,16.30
2009,07,03,03,06,16.30
2009,07,03,03,07,16.30
2009,07,03,03,08,16.30
2009,07,03,03,09,16.30
2009,07,03,03,10,16.30
2009,07,03,03,11,16.30
2009,07,03,03,12,16.20
2009,07,03,03,13,16.20
2009,07,03,03,14,16.20
2009,07,03,03,15,16.20
2009,07,03,03,16,16.20
2009,07,03,03,17,16.20
2009,07,03,03,18,16.10
2009,07,03,03,19,16.10
2009,07,03,03,20,16.10
2009,07,03,03,21,16.10
2009,07,03,03,22,16.10
2009,07,03,03,23,16.10
2009,07,03,03,24,16.10
2009,07,03,03,25,16.10
2009,07,03,03,26,16.00
2009,07,03,03,27,16.00
2009,07,03,03,28,16.00
2009,07,03,03,29,15.90
2009,07,03,03,30,15.90
2009,07,03,03,31,15.90
2009,07,03,03,32,15.90
2009,07,03,03,33,15.80
2009,07,03,03,34,15.80
2009,07,03,03,35,15.80
2009,07,03,03,36,15.80
2009,07,03,03,37,15.80
2009,07,03,03,38,15.70
2009,07,03,03,39,15.70
2009,07,03,03,40,15.70
2009,07,03,03,41,15.70
2009,07,03,03,42,15.70
2009,07,03,03,43,15.70
2009,07,03,03,44,15.70
2009,07,03,03,45,15.80
2009,07,03,03,46,15.80
2009,07,03,03,47,15.80
2009,07,03,03,48,15.80
2009,07,03,03,49,15.80
2009,07,03,03,50,15.80
2009,07,03,03,51,15.80
2009,07,03,03,52,15.80
2009,07,03,03,53,15.80
2009,07,03,03,54,15.80
2009,07,03,03,55,15.80
2009,07,03,03,56,15.70
2009,07,03,03,57,15.70
2009,07,03,03,58,15.70
2009,07,03,03,59,15.70
2009,07,03,04,00,15.60
2009,07,03,04,01,15.60
2009,07,03,04,02,15.60
2009,07,03,04,03,15.60
2009,07,03,04,04,15.60
2009,07,03,04,05,15.60
2009,07,03,04,06,15.60
2009,07,03,04,07,15.60
2009,07,03,04,08,15.60
2009,07,03,04,09,15.60
2009,07,03,04,10,15.50
2009,07,03,04,11,15.50
2009,07,03,04,12,15.50
2009,07,03,04,13,15.50
2009,07,03,04,14,15.50
2009,07,03,04,15,15.40
2009,07,03,04,16,15.40
2009,07,03,04,17,15.40
2009,07,03,04,18,15.40
2009,07,03,04,19,15.40
2009,07,03,04,20,15.40
2009,07,03,04,21,15.40
2009,07,03,04,22,15.40
2009,07,03,04,23,15.40
2009,07,03,04,24,15.40
2009,07,03,04,25,15.40
2009,07,03,04,26,15.40
2009,07,03,04,27,15.40
2009,07,03,04,28,15.40
2009,07,03,04,29,15.40
2009,07,03,04,30,15.30
2009,07,03,04,31,15.30
2009,07,03,04,32,15.30
2009,07,03,04,33,15.30
2009,07,03,04,34,15.30
2009,07,03,04,35,15.30
2009,07,03,04,36,15.20
2009,07,03,04,37,15.20
2009,07,03,04,38,15.20
2009,07,03,04,39,15.20
2009,07,03,04,40,15.20
2009,07,03,04,41,15.20
2009,07,03,04,42,15.20
2009,07,03,04,43,15.20
2009,07,03,04,44,15.20
2009,07,03,04,45,15.20
2009,07,03,04,46,15.20
2009,07,03,04,47,15.10
2009,07,03,04,48,15.10
2009,07,03,04,49,15.10
2009,07,03,04,50,15.10
2009,07,03,04,51,15.10
2009,07,03,04,52,15.10
2009,07,03,04,53,15.10
2009,07,03,04,54,15.10
2009,07,03,04,55,15.10
2009,07,03,04,56,15.10
2009,07,03,04,57,15.10
2009,07,03,04,58,15.10
2009,07,03,04,59,15.10
2009,07,03,05,00,15.10
2009,07,03,05,01,15.00
2009,07,03,05,02,15.00
2009,07,03,05,03,15.00
2009,07,03,05,04,15.00
2009,07,03,05,05,15.00
2009,07,03,05,06,15.00
2009,07,03,05,07,15.00
2009,07,03,05,08,15.00
2009,07,03,05,09,15.00
2009,07,03,05,10,15.00
2009,07,03,05,11,15.00
2009,07,03,05,12,15.00
2009,07,03,05,13,14.90
2009,07,03,05,14,14.90
2009,07,03,05,15,14.90
2009,07,03,05,16,14.80
2009,07,03,05,17,14.80
2009,07,03,05,18,14.80
2009,07,03,05,19,14.80
2009,07,03,05,20,14.80
2009,07,03,05,21,14.80
2009,07,03,05,22,14.80
2009,07,03,05,23,14.80
2009,07,03,05,24,14.80
2009,07,03,05,25,14.80
2009,07,03,05,26,14.80
2009,07,03,05,27,14.80
2009,07,03,05,28,14.80
2009,07,03,05,29,14.80
2009,07,03,05,30,14.80
2009,07,03,05,31,14.70
2009,07,03,05,32,14.70
2009,07,03,05,33,14.70
2009,07,03,05,34,14.70
2009,07,03,05,35,14.60
2009,07,03,05,36,14.60
2009,07,03,05,37,14.50
2009,07,03,05,38,14.40
2009,07,03,05,39,14.40
2009,07,03,05,40,14.30
2009,07,03,05,41,14.20
2009,07,03,05,42,14.20
2009,07,03,05,43,14.10
2009,07,03,05,44,14.00
2009,07,03,05,45,14.00
2009,07,03,05,46,13.90
2009,07,03,05,47,13.90
2009,07,03,05,48,13.90
2009,07,03,05,49,13.90
2009,07,03,05,50,13.90
2009,07,03,05,51,13.90
2009,07,03,05,52,13.90
2009,07,03,05,53,13.90
2009,07,03,05,54,13.80
2009,07,03,05,55,13.80
2009,07,03,05,56,13.80
2009,07,03,05,57,13.70
2009,07,03,05,58,13.70
2009,07,03,05,59,13.60
2009,07,03,06,00,13.50
2009,07,03,06,01,13.40
2009,07,03,06,02,13.30
2009,07,03,06,03,13.10
2009,07,03,06,04,13.00
2009,07,03,06,05,13.00
2009,07,03,06,06,12.90
2009,07,03,06,07,12.90
2009,07,03,06,08,12.90
2009,07,03,06,09,12.90
2009,07,03,06,10,12.90
2009,07,03,06,11,12.90
2009,07,03,06,12,12.90
2009,07,03,06,13,13.00
2009,07,03,06,14,13.00
2009,07,03,06,15,13.10
2009,07,03,06,16,13.10
2009,07,03,06,17,13.20
2009,07,03,06,18,13.20
2009,07,03,06,19,13.20
2009,07,03,06,20,13.30
2009,07,03,06,21,13.40
2009,07,03,06,22,13.40
2009,07,03,06,23,13.50
2009,07,03,06,24,13.60
2009,07,03,06,25,13.70
2009,07,03,06,26,13.80
2009,07,03,06,27,14.00
2009,07,03,06,28,14.10
2009,07,03,06,29,14.30
2009,07,03,06,30,14.40
2009,07,03,06,31,14.60
2009,07,03,06,32,14.80
2009,07,03,06,33,15.00
2009,07,03,06,34,15.00
2009,07,03,06,35,15.10
2009,07,03,06,36,15.30
2009,07,03,06,37,15.40
2009,07,03,06,38,15.50
2009,07,03,06,39,15.60
2009,07,03,06,40,15.70
2009,07,03,06,41,15.80
2009,07,03,06,42,15.90
2009,07,03,06,43,16.00
2009,07,03,06,44,16.10
2009,07,03,06,45,16.20
2009,07,03,06,46,16.30
2009,07,03,06,47,16.40
2009,07,03,06,48,16.50
2009,07,03,06,49,16.50
2009,07,03,06,50,16.60
2009,07,03,06,51,16.70
2009,07,03,06,52,16.70
2009,07,03,06,53,16.80
2009,07,03,06,54,16.80
2009,07,03,06,55,16.80
2009,07,03,06,56,16.90
2009,07,03,06,57,16.90
2009,07,03,06,58,16.90
2009,07,03,06,59,16.90
2009,07,03,07,00,17.00
2009,07,03,07,01,17.00
2009,07,03,07,02,17.10
2009,07,03,07,03,17.10
2009,07,03,07,04,17.20
2009,07,03,07,05,17.20
2009,07,03,07,06,17.30
2009,07,03,07,07,17.30
2009,07,03,07,08,17.40
2009,07,03,07,09,17.40
2009,07,03,07,10,17.40
2009,07,03,07,11,17.40
2009,07,03,07,12,17.40
2009,07,03,07,13,17.50
2009,07,03,07,14,17.60
2009,07,03,07,15,17.70
2009,07,03,07,16,17.70
2009,07,03,07,17,17.70
2009,07,03,07,18,17.80
2009,07,03,07,19,17.90
2009,07,03,07,20,17.90
2009,07,03,07,21,17.90
2009,07,03,07,22,18.00
2009,07,03,07,23,18.10
2009,07,03,07,24,18.10
2009,07,03,07,25,18.20
2009,07,03,07,26,18.30
2009,07,03,07,27,18.40
2009,07,03,07,28,18.40
2009,07,03,07,29,18.50
2009,07,03,07,30,18.40
2009,07,03,07,31,18.40
2009,07,03,07,32,18.40
2009,07,03,07,33,18.40
2009,07,03,07,34,18.40
2009,07,03,07,35,18.40
2009,07,03,07,36,18.40
2009,07,03,07,37,18.40
2009,07,03,07,38,18.50
2009,07,03,07,39,18.50
2009,07,03,07,40,18.60
2009,07,03,07,41,18.60
2009,07,03,07,42,18.70
2009,07,03,07,43,18.70
2009,07,03,07,44,18.70
2009,07,03,07,45,18.70
2009,07,03,07,46,18.70
2009,07,03,07,47,18.70
2009,07,03,07,48,18.80
2009,07,03,07,49,18.80
2009,07,03,07,50,18.80
2009,07,03,07,51,18.80
2009,07,03,07,52,18.80
2009,07,03,07,53,18.80
2009,07,03,07,54,18.90
2009,07,03,07,55,18.90
2009,07,03,07,56,19.00
2009,07,03,07,57,19.00
2009,07,03,07,58,19.00
2009,07,03,07,59,19.00
2009,07,03,08,00,19.00
2009,07,03,08,01,18.90
2009,07,03,08,02,18.90
2009,07,03,08,03,19.00
2009,07,03,08,04,19.00
2009,07,03,08,05,19.10
2009,07,03,08,06,19.10
2009,07,03,08,07,19.20
2009,07,03,08,08,19.30
2009,07,03,08,09,19.30
2009,07,03,08,10,19.40
2009,07,03,08,11,19.40
2009,07,03,08,12,19.50
2009,07,03,08,13,19.50
2009,07,03,08,14,19.50
2009,07,03,08,15,19.50
2009,07,03,08,16,19.50
2009,07,03,08,17,19.50
2009,07,03,08,18,19.40
2009,07,03,08,19,19.40
2009,07,03,08,20,19.30
2009,07,03,08,21,19.30
2009,07,03,08,22,19.30
2009,07,03,08,23,19.20
2009,07,03,08,24,19.20
2009,07,03,08,25,19.20
2009,07,03,08,26,19.30
2009,07,03,08,27,19.30
2009,07,03,08,28,19.30
2009,07,03,08,29,19.30
2009,07,03,08,30,19.30
2009,07,03,08,31,19.40
2009,07,03,08,32,19.40
2009,07,03,08,33,19.50
2009,07,03,08,34,19.60
2009,07,03,08,35,19.60
2009,07,03,08,36,19.70
2009,07,03,08,37,19.70
2009,07,03,08,38,19.80
2009,07,03,08,39,19.80
2009,07,03,08,40,19.90
2009,07,03,08,41,19.90
2009,07,03,08,42,19.80
2009,07,03,08,43,19.80
2009,07,03,08,44,19.80
2009,07,03,08,45,19.80
2009,07,03,08,46,19.80
2009,07,03,08,47,19.80
2009,07,03,08,48,19.80
2009,07,03,08,49,19.90
2009,07,03,08,50,19.90
2009,07,03,08,51,20.00
2009,07,03,08,52,20.10
2009,07,03,08,53,20.10
2009,07,03,08,54,20.10
2009,07,03,08,55,20.10
2009,07,03,08,56,20.10
2009,07,03,08,57,20.10
2009,07,03,08,58,20.20
2009,07,03,08,59,20.20
2009,07,03,09,00,20.30
2009,07,03,09,01,20.40
2009,07,03,09,02,20.40
2009,07,03,09,03,20.40
2009,07,03,09,04,20.40
2009,07,03,09,05,20.40
2009,07,03,09,06,20.40
2009,07,03,09,07,20.20
2009,07,03,09,08,20.10
2009,07,03,09,09,20.00
2009,07,03,09,10,19.80
2009,07,03,09,11,19.80
2009,07,03,09,12,19.80
2009,07,03,09,13,19.70
2009,07,03,09,14,19.60
2009,07,03,09,15,19.60
2009,07,03,09,16,19.50
2009,07,03,09,17,19.40
2009,07,03,09,18,19.40
2009,07,03,09,19,19.40
2009,07,03,09,20,19.40
2009,07,03,09,21,19.40
2009,07,03,09,22,19.30
2009,07,03,09,23,19.30
2009,07,03,09,24,19.30
2009,07,03,09,25,19.30
2009,07,03,09,26,19.30
2009,07,03,09,27,19.30
2009,07,03,09,28,19.20
2009,07,03,09,29,19.20
2009,07,03,09,30,19.30
2009,07,03,09,31,19.30
2009,07,03,09,32,19.30
2009,07,03,09,33,19.30
2009,07,03,09,34,19.40
2009,07,03,09,35,19.40
2009,07,03,09,36,19.50
2009,07,03,09,37,19.50
2009,07,03,09,38,19.60
2009,07,03,09,39,19.60
2009,07,03,09,40,19.60
2009,07,03,09,41,19.60
2009,07,03,09,42,19.70
2009,07,03,09,43,19.80
2009,07,03,09,44,19.80
2009,07,03,09,45,19.90
2009,07,03,09,46,20.00
2009,07,03,09,47,20.00
2009,07,03,09,48,20.00
2009,07,03,09,49,20.10
2009,07,03,09,50,20.20
2009,07,03,09,51,20.20
2009,07,03,09,52,20.30
2009,07,03,09,53,20.30
2009,07,03,09,54,20.20
2009,07,03,09,55,20.20
2009,07,03,09,56,20.20
2009,07,03,09,57,20.20
2009,07,03,09,58,20.10
2009,07,03,09,59,20.00
2009,07,03,10,00,20.00
2009,07,03,10,01,19.90
2009,07,03,10,02,19.90
2009,07,03,10,03,20.00
2009,07,03,10,04,20.00
2009,07,03,10,05,20.10
2009,07,03,10,06,20.10
2009,07,03,10,07,20.10
2009,07,03,10,08,20.00
2009,07,03,10,09,20.00
2009,07,03,10,10,20.00
2009,07,03,10,11,20.10
2009,07,03,10,12,20.10
2009,07,03,10,13,20.10
2009,07,03,10,14,20.20
2009,07,03,10,15,20.20
2009,07,03,10,16,20.10
2009,07,03,10,17,19.90
2009,07,03,10,18,19.70
2009,07,03,10,19,19.60
2009,07,03,10,20,19.40
2009,07,03,10,21,19.40
2009,07,03,10,22,19.40
2009,07,03,10,23,19.40
2009,07,03,10,24,19.40
2009,07,03,10,25,19.40
2009,07,03,10,26,19.40
2009,07,03,10,27,19.40
2009,07,03,10,28,19.50
2009,07,03,10,29,19.60
2009,07,03,10,30,19.60
2009,07,03,10,31,19.70
2009,07,03,10,32,19.70
2009,07,03,10,33,19.70
2009,07,03,10,34,19.80
2009,07,03,10,35,19.80
2009,07,03,10,36,19.80
2009,07,03,10,37,19.80
2009,07,03,10,38,19.70
2009,07,03,10,39,19.70
2009,07,03,10,40,19.70
2009,07,03,10,41,19.80
2009,07,03,10,42,19.90
2009,07,03,10,43,19.90
2009,07,03,10,44,19.90
2009,07,03,10,45,19.90
2009,07,03,10,46,19.90
2009,07,03,10,47,20.00
2009,07,03,10,48,20.00
2009,07,03,10,49,20.00
2009,07,03,10,50,20.00
2009,07,03,10,51,19.90
2009,07,03,10,52,19.90
2009,07,03,10,53,19.90
2009,07,03,10,54,19.90
2009,07,03,10,55,19.80
2009,07,03,10,56,19.80
2009,07,03,10,57,19.80
2009,07,03,10,58,19.80
2009,07,03,10,59,19.70
2009,07,03,11,00,19.70
2009,07,03,11,01,19.70
2009,07,03,11,02,19.70
2009,07,03,11,03,19.70
2009,07,03,11,04,19.80
2009,07,03,11,05,19.80
2009,07,03,11,06,19.80
2009,07,03,11,07,19.80
2009,07,03,11,08,19.80
2009,07,03,11,09,19.80
2009,07,03,11,10,19.80
2009,07,03,11,11,19.80
2009,07,03,11,12,19.80
2009,07,03,11,13,19.80
2009,07,03,11,14,19.90
2009,07,03,11,15,20.00
2009,07,03,11,16,20.00
2009,07,03,11,17,20.10
2009,07,03,11,18,20.10
2009,07,03,11,19,20.10
2009,07,03,11,20,20.10
2009,07,03,11,21,20.10
2009,07,03,11,22,20.10
2009,07,03,11,23,20.20
2009,07,03,11,24,20.10
2009,07,03,11,25,20.10
2009,07,03,11,26,20.00
2009,07,03,11,27,19.90
2009,07,03,11,28,19.80
2009,07,03,11,29,19.80
2009,07,03,11,30,19.70
2009,07,03,11,31,19.70
2009,07,03,11,32,19.70
2009,07,03,11,33,19.70
2009,07,03,11,34,19.70
2009,07,03,11,35,19.80
2009,07,03,11,36,19.80
2009,07,03,11,37,19.80
2009,07,03,11,38,19.80
2009,07,03,11,39,19.80
2009,07,03,11,40,19.80
2009,07,03,11,41,19.80
2009,07,03,11,42,19.80
2009,07,03,11,43,19.70
2009,07,03,11,44,19.60
2009,07,03,11,45,19.60
2009,07,03,11,46,19.70
2009,07,03,11,47,19.70
2009,07,03,11,48,19.70
2009,07,03,11,49,19.60
2009,07,03,11,50,19.60
2009,07,03,11,51,19.70
2009,07,03,11,52,19.70
2009,07,03,11,53,19.70
2009,07,03,11,54,19.70
2009,07,03,11,55,19.70
2009,07,03,11,56,19.70
2009,07,03,11,57,19.70
2009,07,03,11,58,19.70
2009,07,03,11,59,19.70
2009,07,03,12,00,19.80
2009,07,03,12,01,19.80
2009,07,03,12,02,19.80
2009,07,03,12,03,19.90
2009,07,03,12,04,19.90
2009,07,03,12,05,19.90
2009,07,03,12,06,19.90
2009,07,03,12,07,19.90
2009,07,03,12,08,20.00
2009,07,03,12,09,20.00
2009,07,03,12,10,20.10
2009,07,03,12,11,20.20
2009,07,03,12,12,20.30
2009,07,03,12,13,20.30
2009,07,03,12,14,20.30
2009,07,03,12,15,20.30
2009,07,03,12,16,20.40
2009,07,03,12,17,20.50
2009,07,03,12,18,20.70
2009,07,03,12,19,20.80
2009,07,03,12,20,20.80
2009,07,03,12,21,20.90
2009,07,03,12,22,20.90
2009,07,03,12,23,21.00
2009,07,03,12,24,21.00
2009,07,03,12,25,21.00
2009,07,03,12,26,21.00
2009,07,03,12,27,21.00
2009,07,03,12,28,21.00
2009,07,03,12,29,21.10
2009,07,03,12,30,21.20
2009,07,03,12,31,21.20
2009,07,03,12,32,21.20
2009,07,03,12,33,21.20
2009,07,03,12,34,21.20
2009,07,03,12,35,21.20
2009,07,03,12,36,21.30
2009,07,03,12,37,21.30
2009,07,03,12,38,21.30
2009,07,03,12,39,21.40
2009,07,03,12,40,21.50
2009,07,03,12,41,21.60
2009,07,03,12,42,21.70
2009,07,03,12,43,21.70
2009,07,03,12,44,21.70
2009,07,03,12,45,21.60
2009,07,03,12,46,21.60
2009,07,03,12,47,21.50
2009,07,03,12,48,21.40
2009,07,03,12,49,21.40
2009,07,03,12,50,21.40
2009,07,03,12,51,21.40
2009,07,03,12,52,21.40
2009,07,03,12,53,21.30
2009,07,03,12,54,21.30
2009,07,03,12,55,21.30
2009,07,03,12,56,21.30
2009,07,03,12,57,21.30
2009,07,03,12,58,21.40
2009,07,03,12,59,21.40
2009,07,03,13,00,21.50
2009,07,03,13,01,21.60
2009,07,03,13,02,21.60
2009,07,03,13,03,21.60
2009,07,03,13,04,21.70
2009,07,03,13,05,21.80
2009,07,03,13,06,21.80
2009,07,03,13,07,21.80
2009,07,03,13,08,21.80
2009,07,03,13,09,21.70
2009,07,03,13,10,21.70
2009,07,03,13,11,21.70
2009,07,03,13,12,21.80
2009,07,03,13,13,21.80
2009,07,03,13,14,21.90
2009,07,03,13,15,22.00
2009,07,03,13,16,22.00
2009,07,03,13,17,22.00
2009,07,03,13,18,22.10
2009,07,03,13,19,22.10
2009,07,03,13,20,22.10
2009,07,03,13,21,22.10
2009,07,03,13,22,22.20
2009,07,03,13,23,22.30
2009,07,03,13,24,22.30
2009,07,03,13,25,22.40
2009,07,03,13,26,22.40
2009,07,03,13,27,22.40
2009,07,03,13,28,22.50
2009,07,03,13,29,22.50
2009,07,03,13,30,22.60
2009,07,03,13,31,22.60
2009,07,03,13,32,22.60
2009,07,03,13,33,22.70
2009,07,03,13,34,22.70
2009,07,03,13,35,22.70
2009,07,03,13,36,22.70
2009,07,03,13,37,22.70
2009,07,03,13,38,22.70
2009,07,03,13,39,22.70
2009,07,03,13,40,22.70
2009,07,03,13,41,22.80
2009,07,03,13,42,22.80
2009,07,03,13,43,22.80
2009,07,03,13,44,22.80
2009,07,03,13,45,22.90
2009,07,03,13,46,23.00
2009,07,03,13,47,23.10
2009,07,03,13,48,23.20
2009,07,03,13,49,23.30
2009,07,03,13,50,23.30
2009,07,03,13,51,23.30
2009,07,03,13,52,23.30
2009,07,03,13,53,23.40
2009,07,03,13,54,23.40
2009,07,03,13,55,23.40
2009,07,03,13,56,23.30
2009,07,03,13,57,23.30
2009,07,03,13,58,23.30
2009,07,03,13,59,23.30
2009,07,03,14,00,23.30
2009,07,03,14,01,23.30
2009,07,03,14,02,23.40
2009,07,03,14,03,23.50
2009,07,03,14,04,23.60
2009,07,03,14,05,23.80
2009,07,03,14,06,23.90
2009,07,03,14,07,24.00
2009,07,03,14,08,24.00
2009,07,03,14,09,24.10
2009,07,03,14,10,24.20
2009,07,03,14,11,24.20
2009,07,03,14,12,24.30
2009,07,03,14,13,24.20
2009,07,03,14,14,24.20
2009,07,03,14,15,24.30
2009,07,03,14,16,24.30
2009,07,03,14,17,24.30
2009,07,03,14,18,24.30
2009,07,03,14,19,24.30
2009,07,03,14,20,24.30
2009,07,03,14,21,24.30
2009,07,03,14,22,24.40
2009,07,03,14,23,24.50
2009,07,03,14,24,24.50
2009,07,03,14,25,24.50
2009,07,03,14,26,24.40
2009,07,03,14,27,24.30
2009,07,03,14,28,24.30
2009,07,03,14,29,24.30
2009,07,03,14,30,24.40
2009,07,03,14,31,24.50
2009,07,03,14,32,24.60
2009,07,03,14,33,24.70
2009,07,03,14,34,24.80
2009,07,03,14,35,24.80
2009,07,03,14,36,24.90
2009,07,03,14,37,24.90
2009,07,03,14,38,24.90
2009,07,03,14,39,24.90
2009,07,03,14,40,24.90
2009,07,03,14,41,25.00
2009,07,03,14,42,25.10
2009,07,03,14,43,25.10
2009,07,03,14,44,25.10
2009,07,03,14,45,25.10
2009,07,03,14,46,25.10
2009,07,03,14,47,25.20
2009,07,03,14,48,25.20
2009,07,03,14,49,25.20
2009,07,03,14,50,25.20
2009,07,03,14,51,25.30
2009,07,03,14,52,25.30
2009,07,03,14,53,25.40
2009,07,03,14,54,25.50
2009,07,03,14,55,25.60
2009,07,03,14,56,25.70
2009,07,03,14,57,25.70
2009,07,03,14,58,25.80
2009,07,03,14,59,25.90
2009,07,03,15,00,25.90
2009,07,03,15,01,25.90
2009,07,03,15,02,25.90
2009,07,03,15,03,26.00
2009,07,03,15,04,26.00
2009,07,03,15,05,26.00
2009,07,03,15,06,26.10
2009,07,03,15,07,26.10
2009,07,03,15,08,26.10
2009,07,03,15,09,26.10
2009,07,03,15,10,26.10
2009,07,03,15,11,26.20
2009,07,03,15,12,26.20
2009,07,03,15,13,26.20
2009,07,03,15,14,26.30
2009,07,03,15,15,26.30
2009,07,03,15,16,26.40
2009,07,03,15,17,26.50
2009,07,03,15,18,26.50
2009,07,03,15,19,26.40
2009,07,03,15,20,26.40
2009,07,03,15,21,26.40
2009,07,03,15,22,26.30
2009,07,03,15,23,26.20
2009,07,03,15,24,26.20
2009,07,03,15,25,26.30
2009,07,03,15,26,26.30
2009,07,03,15,27,26.30
2009,07,03,15,28,26.20
2009,07,03,15,29,26.20
2009,07,03,15,30,26.10
2009,07,03,15,31,25.90
2009,07,03,15,32,25.90
2009,07,03,15,33,25.80
2009,07,03,15,34,25.70
2009,07,03,15,35,25.70
2009,07,03,15,36,25.60
2009,07,03,15,37,25.60
2009,07,03,15,38,25.60
2009,07,03,15,39,25.70
2009,07,03,15,40,25.70
2009,07,03,15,41,25.80
2009,07,03,15,42,25.70
2009,07,03,15,43,25.70
2009,07,03,15,44,25.70
2009,07,03,15,45,25.80
2009,07,03,15,46,25.80
2009,07,03,15,47,25.90
2009,07,03,15,48,25.90
2009,07,03,15,49,25.80
2009,07,03,15,50,25.90
2009,07,03,15,51,25.90
2009,07,03,15,52,25.90
2009,07,03,15,53,26.00
2009,07,03,15,54,26.10
2009,07,03,15,55,26.20
2009,07,03,15,56,26.20
2009,07,03,15,57,26.20
2009,07,03,15,58,26.30
2009,07,03,15,59,26.40
2009,07,03,16,00,26.50
2009,07,03,16,01,26.50
2009,07,03,16,02,26.60
2009,07,03,16,03,26.60
2009,07,03,16,04,26.60
2009,07,03,16,05,26.70
2009,07,03,16,06,26.70
2009,07,03,16,07,26.80
2009,07,03,16,08,26.80
2009,07,03,16,09,26.90
2009,07,03,16,10,26.90
2009,07,03,16,11,26.90
2009,07,03,16,12,27.00
2009,07,03,16,13,27.00
2009,07,03,16,14,27.00
2009,07,03,16,15,27.00
2009,07,03,16,16,27.00
2009,07,03,16,17,26.90
2009,07,03,16,18,26.90
2009,07,03,16,19,26.90
2009,07,03,16,20,26.90
2009,07,03,16,21,26.90
2009,07,03,16,22,26.90
2009,07,03,16,23,26.90
2009,07,03,16,24,26.90
2009,07,03,16,25,26.90
2009,07,03,16,26,26.90
2009,07,03,16,27,26.90
2009,07,03,16,28,27.00
2009,07,03,16,29,27.10
2009,07,03,16,30,27.20
2009,07,03,16,31,27.30
2009,07,03,16,32,27.40
2009,07,03,16,33,27.40
2009,07,03,16,34,27.50
2009,07,03,16,35,27.60
2009,07,03,16,36,27.60
2009,07,03,16,37,27.70
2009,07,03,16,38,27.70
2009,07,03,16,39,27.70
2009,07,03,16,40,27.70
2009,07,03,16,41,27.70
2009,07,03,16,42,27.80
2009,07,03,16,43,27.80
2009,07,03,16,44,27.80
2009,07,03,16,45,27.80
2009,07,03,16,46,27.70
2009,07,03,16,47,27.70
2009,07,03,16,48,27.70
2009,07,03,16,49,27.70
2009,07,03,16,50,27.70
2009,07,03,16,51,27.70
2009,07,03,16,52,27.80
2009,07,03,16,53,27.80
2009,07,03,16,54,27.80
2009,07,03,16,55,27.80
2009,07,03,16,56,27.80
2009,07,03,16,57,27.70
2009,07,03,16,58,27.70
2009,07,03,16,59,27.60
2009,07,03,17,00,27.60
2009,07,03,17,01,27.70
2009,07,03,17,02,27.70
2009,07,03,17,03,27.70
2009,07,03,17,04,27.70
2009,07,03,17,05,27.70
2009,07,03,17,06,27.70
2009,07,03,17,07,27.70
2009,07,03,17,08,27.70
2009,07,03,17,09,27.70
2009,07,03,17,10,27.70
2009,07,03,17,11,27.70
2009,07,03,17,12,27.60
2009,07,03,17,13,27.60
2009,07,03,17,14,27.60
2009,07,03,17,15,27.60
2009,07,03,17,16,27.60
2009,07,03,17,17,27.50
2009,07,03,17,18,27.50
2009,07,03,17,19,27.40